Regional Weather Roundup
Issued by NWS Bismarck, ND

Home | Current Version | Previous Version | Text Only | Print | Product List | Glossary On
Versions: 1 2 3 4 5 6 7 8 9 10 11 12 13 14 15 16 17 18 19 20 21 22 23 24 25 26 27 28 29 30 31 32 33 34 35 36 37 38 39 40 41 42 43 44 45 46 47 48 49 50
000
ASUS43 KBIS 211459
RWRBIS

NWR BROADCAST TEXT
NATIONAL WEATHER SERVICE BISMARCK ND
1000 AM CDT TUE OCT 21 2014

NOTE: "FAIR" INDICATES FEW OR NO CLOUDS BELOW 12,000 FEET WITH NO
SIGNIFICANT WEATHER AND/OR OBSTRUCTIONS TO VISIBILITY.


CITY           SKY/WX    TMP DP  RH WIND       PRES   REMARKS
WILLISTON      SUNNY     51  39  63 CALM      29.74S
MINOT          SUNNY     52  38  58 SE7       29.79F
MINOT AFB      NOT AVBL
BISMARCK       SUNNY     55  39  54 SE9       29.83S
DICKINSON      NOT AVBL
GARRISON         N/A     51  39  63 SE8       29.79F
HETTINGER ARPT SUNNY     48  40  73 SE6       29.78F
JAMESTOWN      SUNNY     52  39  61 SE17      29.90F
CARRINGTON     FAIR      50  41  71 S22G30    29.88F
OAKES            N/A     50  43  76 E10       29.94F
$$

CITY           SKY/WX    TMP DP  RH WIND       PRES   REMARKS
GRAND FORKS    SUNNY     45  40  82 SE18      30.00F
GRAND FORKS AF NOT AVBL
DEVILS LAKE    SUNNY     48  37  66 SE10      29.89F
FARGO          SUNNY     49  40  71 SE15G26   30.02S
CAVALIER       FAIR      41  39  93 S13G20    29.98F
GRAFTON        FAIR      43  39  87 SE13      30.00F
GWINNER        SUNNY     48  39  71 SE14      29.99S
$$

CITY           SKY/WX    TMP DP  RH WIND       PRES   REMARKS
ABERDEEN       SUNNY     59  39  47 S16       29.93F
MOBRIDGE       SUNNY     59  43  55 S13       29.82R
RAPID CITY     SUNNY     56  42  59 E5        29.84S
GLASGOW        MOSUNNY   50  40  68 E15       29.66S
SIDNEY         SUNNY     45  39  81 CALM      29.74F
WOLF POINT     SUNNY     43  39  86 E6        29.70F
GLENDIVE       SUNNY     45  41  87 CALM      29.73S
MILES CITY     SUNNY     44  37  76 SE5       29.71S
BAKER          SUNNY     49  42  77 SE7       29.74F
$$

CITY           SKY/WX    TMP DP  RH WIND       PRES   REMARKS
BILLINGS       MOSUNNY   54  29  38 SW15      29.73S
GREAT FALLS    LGT RAIN  50  38  63 N3        29.66R
$$



USA.gov is the U.S. government's official web portal to all federal, state and local government web resources and services.